Notices

What's New in latest Release from April 7th, 2021:

- Updated Glossary, including Speed of Maximum Gust, and Total Hourly Precipitation

- Updated national and regional climate services offices contacts and prices information

- Addition of station inventory lists for 1981-2010, 1971-2000, and 1961-1990 Normals.

If you haven't already, please take our survey and provide feedback about our website: https://eccc.sondage-survey.ca/f/LanguageSelection.aspx?s=442ca660-fcf1-47c0-95a9-59707d6fd709

Hourly Data Report for March 24, 2021

MIRAMICHI RCS
NEW BRUNSWICK
Current Station Operator: ECCC - MSC

47°00'34.000" N
65°27'54.000" W
33.00 m
8100989
71744
ACQ

Download Data

Hourly Data (March 2021)
Hourly Data Report for March 24, 2021
TIME
LST
Temp Definition
°C
Dew Point Definition
°C
Rel Hum Definition
%
Precip. Amount Definition
mm

Wind Dir Definition
10's deg

Wind Spd Definition
km/h
Visibility Definition
km
Stn Press Definition
kPa
Hmdx Definition


Wind Chill Definition


Weather Definition


00:00 5.9 0.0 66 LegendMM 22 8   101.80     LegendNANA
01:00 5.5 0.5 70 LegendMM 23 9   101.80     LegendNANA
02:00 3.9 0.0 75 LegendMM 25 9   101.81     LegendNANA
03:00 3.4 0.3 80 LegendMM 25 9   101.81     LegendNANA
04:00 3.5 0.3 79 LegendMM 25 8   101.79     LegendNANA
05:00 2.3 -0.4 82 LegendMM 24 4   101.76     LegendNANA
06:00 1.4 -0.4 88 LegendMM 27 6   101.83     LegendNANA
07:00 1.2 -0.4 88 LegendMM 27 7   101.87     LegendNANA
08:00 4.6 0.5 75 LegendMM 24 10   101.86     LegendNANA
09:00 6.6 0.4 65 LegendMM 24 12   101.88     LegendNANA
10:00 9.9 -0.1 50 LegendMM 24 9   101.88     LegendNANA
11:00 11.7 -1.2 41 LegendMM 21 12   101.86     LegendNANA
12:00 13.4 -1.3 36 LegendMM 20 10   101.80     LegendNANA
13:00 14.2 -1.9 33 LegendMM 22 15   101.77     LegendNANA
14:00 15.1 -3.2 28 LegendMM 22 20   101.75     LegendNANA
15:00 15.4 -3.2 28 LegendMM 21 18   101.71     LegendNANA
16:00 14.8 -3.0 29 LegendMM 21 18   101.69     LegendNANA
17:00 13.4 -1.6 35 LegendMM 20 18   101.70     LegendNANA
18:00 12.5 -1.3 38 LegendMM 20 14   101.72     LegendNANA
19:00 10.3 0.1 49 LegendMM 20 10   101.74     LegendNANA
20:00 9.0 0.5 55 LegendMM 20 14   101.78     LegendNANA
21:00 7.6 0.7 62 LegendMM 21 12   101.76     LegendNANA
22:00 7.5 1.2 64 LegendMM 22 9   101.74     LegendNANA
23:00 7.2 1.9 69 LegendMM 23 14   101.74     LegendNANA

Notes on Data Quality.

Legend

  • E = Estimated
  • M = Missing
  • NA = Not Available*
  • [empty] = Indicates an unobserved value
Date modified: